Weather History for St. Petersburg Airport, FL

Change the Weather History Date:

Tuesday, April 23, 2013

  Actual Average Record
Temperature  
Mean Temperature 75 °F -  
Max Temperature 84 °F 83 °F 88 °F (1968)
Min Temperature 66 °F 67 °F 56 °F (1993)
Cooling Degree Days 10    
Growing Degree Days 25 (Base 50)    
Moisture  
Dew Point 62 °F    
Average Humidity 69    
Maximum Humidity 88    
Minimum Humidity 44    
Precipitation  
Precipitation 0.00 in - - ()
Sea Level Pressure  
Sea Level Pressure 30.07 in    
Wind  
Wind Speed 10 mph (ENE)    
Max Wind Speed 15 mph    
Max Gust Speed 21 mph    
Visibility 10 miles    
Events      
Averages and records for this station are not official NWS values.
T = Trace of Precipitation, MM = Missing Value Source: NWS Daily Summary

Daily Weather History Graph

Daily Weather History Graph

Search for Another Location

Airport:

Trip Planner

Search our weather history database for the weather conditions in past years. The results will help you decide how hot, cold, wet, or windy it might be!

Date:

Astronomy

Apr. 23, 2013 Rise Set
Actual Time 6:57 AM EDT 8:00 PM EDT
Civil Twilight 6:33 AM EDT 8:24 PM EDT
Nautical Twilight 6:04 AM EDT 8:53 PM EDT
Astronomical Twilight 5:35 AM EDT 9:23 PM EDT
Moon 6:02 PM EDT (4/23) 5:13 AM EDT (4/23)
Length of Visible Light 13h 51m
Length of Day
13h 02m
Waxing Gibbous, 94% of the Moon is Illuminated
Apr 23
Waxing Gibbous
Apr 25
Full
May 2
Last Quarter
May 9
New
May 18
First Quarter

Hourly Weather History & Observations

Time (EDT) Temp. Heat Index Dew Point Humidity Pressure Visibility Wind Dir Wind Speed Gust Speed Precip Events Conditions
12:11 AM 69.8 °F - 62.6 °F 78% 30.08 in 10.0 mi ENE 15.0 mph 19.6 mph N/A   Overcast
12:53 AM 68.0 °F - 62.1 °F 81% 30.08 in 10.0 mi ENE 11.5 mph - N/A   Overcast
1:53 AM 68.0 °F - 62.1 °F 81% 30.07 in 10.0 mi ENE 11.5 mph - N/A   Overcast
2:53 AM 68.0 °F - 62.1 °F 81% 30.06 in 10.0 mi ENE 12.7 mph 19.6 mph N/A   Overcast
3:53 AM 68.0 °F - 63.0 °F 84% 30.04 in 10.0 mi NE 10.4 mph - N/A   Overcast
4:53 AM 68.0 °F - 62.1 °F 81% 30.04 in 10.0 mi ENE 12.7 mph 18.4 mph N/A   Overcast
5:53 AM 66.9 °F - 62.1 °F 84% 30.04 in 10.0 mi ENE 10.4 mph - N/A   Overcast
6:09 AM 66.2 °F - 62.6 °F 88% 30.04 in 10.0 mi ENE 10.4 mph 16.1 mph N/A   Overcast
6:53 AM 66.9 °F - 62.1 °F 84% 30.06 in 10.0 mi NE 10.4 mph - N/A   Overcast
7:51 AM 66.2 °F - 62.6 °F 88% 30.08 in 10.0 mi ENE 9.2 mph - N/A   Overcast
7:53 AM 66.9 °F - 62.1 °F 84% 30.08 in 10.0 mi NE 9.2 mph - N/A   Overcast
8:00 AM 66.2 °F - 62.6 °F 88% 30.08 in 10.0 mi ENE 10.4 mph - N/A   Overcast
8:53 AM 69.1 °F - 62.1 °F 78% 30.09 in 10.0 mi ENE 10.4 mph - N/A   Overcast
9:18 AM 69.8 °F - 62.6 °F 78% 30.10 in 10.0 mi NE 8.1 mph - N/A   Mostly Cloudy
9:33 AM 71.6 °F - 62.6 °F 73% 30.11 in 10.0 mi ENE 6.9 mph - N/A   Scattered Clouds
9:53 AM 72.0 °F - 62.1 °F 71% 30.11 in 10.0 mi NE 6.9 mph - N/A   Partly Cloudy
10:53 AM 75.0 °F - 62.1 °F 64% 30.12 in 10.0 mi ENE 9.2 mph - N/A   Clear
11:53 AM 78.1 °F - 64.0 °F 62% 30.12 in 10.0 mi East 6.9 mph - N/A   Scattered Clouds
12:53 PM 79.0 °F - 63.0 °F 58% 30.09 in 10.0 mi East 5.8 mph - N/A   Scattered Clouds
1:53 PM 82.0 °F 83.4 °F 64.0 °F 54% 30.07 in 10.0 mi NNE 4.6 mph - N/A   Clear
2:53 PM 82.0 °F 83.1 °F 63.0 °F 52% 30.06 in 10.0 mi Variable 3.5 mph - N/A   Clear
3:53 PM 82.9 °F 83.3 °F 61.0 °F 47% 30.04 in 10.0 mi Variable 4.6 mph - N/A   Scattered Clouds
4:53 PM 84.9 °F 85.0 °F 61.0 °F 44% 30.03 in 10.0 mi NE 4.6 mph - N/A   Scattered Clouds
5:53 PM 84.0 °F 84.4 °F 61.0 °F 46% 30.03 in 10.0 mi North 4.6 mph - N/A   Clear
6:53 PM 81.0 °F 82.7 °F 64.9 °F 58% 30.04 in 10.0 mi NW 11.5 mph - N/A   Partly Cloudy
7:53 PM 77.0 °F - 66.0 °F 69% 30.05 in 10.0 mi NNE 4.6 mph - N/A   Scattered Clouds
8:53 PM 79.0 °F - 57.9 °F 48% 30.06 in 10.0 mi ENE 13.8 mph - N/A   Partly Cloudy
9:53 PM 77.0 °F - 59.0 °F 54% 30.09 in 10.0 mi East 11.5 mph 20.7 mph N/A   Clear
10:53 PM 73.9 °F - 59.0 °F 59% 30.11 in 10.0 mi East 10.4 mph - N/A   Clear
11:53 PM 72.0 °F - 59.0 °F 64% 30.12 in 10.0 mi East 10.4 mph - N/A   Clear